VLG6AN LEVX-LEBL

Flight info

Callsign VLG6AN
Flight time 1h 22m
Altitude 29000
Route LOMDA DCT SUSOS N725 LOBAR
Aircraft A320/M-SDFGHILORVWXY/LB1

Departure

Time 2026-04-14 10:52
Airport Vigo Airport (LEVX)

Arrival

Time 2026-04-14 12:14
Airport Josep Tarradellas Barcelona-El Prat Airport (LEBL)
Time Latitude Longitude Altitude Speed Heading
2026-04-14 10:35 42.22511 -8.63189 841 ft 0 kts 282°
2026-04-14 10:43 42.22509 -8.63170 842 ft 2 kts 282°
2026-04-14 10:44 42.22506 -8.63151 842 ft 2 kts 282°
2026-04-14 10:44 42.22503 -8.63132 842 ft 2 kts 282°
2026-04-14 10:44 42.22500 -8.63112 842 ft 2 kts 282°
2026-04-14 10:44 42.22495 -8.63094 842 ft 2 kts 319°
2026-04-14 10:45 42.22482 -8.63086 843 ft 2 kts 358°
2026-04-14 10:45 42.22467 -8.63090 843 ft 2 kts 16°
2026-04-14 10:45 42.22461 -8.63092 843 ft 0 kts
2026-04-14 10:47 42.22465 -8.63091 843 ft 3 kts 10°
2026-04-14 10:47 42.22515 -8.63077 842 ft 10 kts 12°
2026-04-14 10:47 42.22605 -8.63051 840 ft 14 kts 14°
2026-04-14 10:47 42.22694 -8.62989 841 ft 14 kts 40°
2026-04-14 10:48 42.22774 -8.62899 841 ft 15 kts 39°
2026-04-14 10:48 42.22856 -8.62816 842 ft 14 kts 35°
2026-04-14 10:48 42.22958 -8.62750 840 ft 18 kts 19°
2026-04-14 10:48 42.23087 -8.62703 840 ft 20 kts 13°
2026-04-14 10:49 42.23237 -8.62661 839 ft 23 kts 12°
2026-04-14 10:49 42.23403 -8.62616 835 ft 25 kts 10°
2026-04-14 10:49 42.23577 -8.62572 831 ft 25 kts 12°
2026-04-14 10:49 42.23745 -8.62525 830 ft 24 kts 11°
2026-04-14 10:50 42.23906 -8.62483 828 ft 23 kts 14°
2026-04-14 10:50 42.24063 -8.62439 826 ft 22 kts 10°
2026-04-14 10:50 42.24184 -8.62443 828 ft 13 kts 356°
2026-04-14 10:50 42.24224 -8.62403 822 ft 7 kts 142°
2026-04-14 10:51 42.24164 -8.62411 823 ft 17 kts 192°
2026-04-14 10:51 42.23808 -8.62512 830 ft 86 kts 191°
2026-04-14 10:51 42.23018 -8.62726 841 ft 143 kts 192°
2026-04-14 10:51 42.21992 -8.62988 1271 ft 152 kts 193°
2026-04-14 10:52 42.20962 -8.63266 1853 ft 154 kts 195°
2026-04-14 10:52 42.19919 -8.63548 2424 ft 155 kts 195°
2026-04-14 10:52 42.18835 -8.63853 2759 ft 166 kts 194°
2026-04-14 10:52 42.17655 -8.64185 3056 ft 182 kts 194°
2026-04-14 10:53 42.16369 -8.64537 3374 ft 198 kts 194°
2026-04-14 10:53 42.14962 -8.64920 3734 ft 213 kts 194°
2026-04-14 10:53 42.13435 -8.65292 4132 ft 231 kts 185°
2026-04-14 10:53 42.11850 -8.64876 4525 ft 253 kts 153°
2026-04-14 10:54 42.10571 -8.63231 4956 ft 274 kts 118°
2026-04-14 10:54 42.10175 -8.60726 5638 ft 281 kts 82°
2026-04-14 10:54 42.10873 -8.58347 6424 ft 281 kts 49°
2026-04-14 10:54 42.12299 -8.56564 7224 ft 281 kts 36°
2026-04-14 10:55 42.13824 -8.54936 7998 ft 285 kts 36°
2026-04-14 10:55 42.15371 -8.53267 8790 ft 287 kts 36°
2026-04-14 10:55 42.16849 -8.51472 9525 ft 291 kts 45°
2026-04-14 10:55 42.17920 -8.49222 10061 ft 300 kts 69°
2026-04-14 10:56 42.18424 -8.46509 10796 ft 303 kts 74°
2026-04-14 10:56 42.18914 -8.43716 11169 ft 317 kts 73°
2026-04-14 10:56 42.19443 -8.40796 11604 ft 328 kts 73°
2026-04-14 10:56 42.19995 -8.37803 12233 ft 332 kts 73°
2026-04-14 10:57 42.20549 -8.34818 12857 ft 335 kts 73°
2026-04-14 10:57 42.21115 -8.31782 13449 ft 338 kts 73°
2026-04-14 10:57 42.21693 -8.28680 14056 ft 341 kts 73°
2026-04-14 10:57 42.22266 -8.25601 14659 ft 343 kts 73°
2026-04-14 10:58 42.22836 -8.22538 15238 ft 346 kts 73°
2026-04-14 10:58 42.23425 -8.19383 15779 ft 349 kts 73°
2026-04-14 10:58 42.24016 -8.16208 16312 ft 353 kts 73°
2026-04-14 10:58 42.24611 -8.13012 16843 ft 355 kts 73°
2026-04-14 10:59 42.25216 -8.09750 17371 ft 358 kts 73°
2026-04-14 10:59 42.25811 -8.06533 17884 ft 360 kts 72°
2026-04-14 10:59 42.26419 -8.03247 18393 ft 363 kts 72°
2026-04-14 10:59 42.27013 -8.00037 18876 ft 365 kts 72°
2026-04-14 11:00 42.27629 -7.96704 19365 ft 368 kts 72°
2026-04-14 11:00 42.28247 -7.93352 19844 ft 370 kts 72°
2026-04-14 11:00 42.28872 -7.89954 20289 ft 374 kts 72°
2026-04-14 11:00 42.29492 -7.86575 20739 ft 376 kts 72°
2026-04-14 11:01 42.30120 -7.83157 21191 ft 379 kts 72°
2026-04-14 11:01 42.30759 -7.79659 21618 ft 382 kts 72°
2026-04-14 11:01 42.31392 -7.76189 22050 ft 384 kts 72°
2026-04-14 11:01 42.32027 -7.72708 22470 ft 387 kts 72°
2026-04-14 11:02 42.32671 -7.69168 22877 ft 389 kts 72°
2026-04-14 11:02 42.33314 -7.65629 23275 ft 392 kts 72°
2026-04-14 11:02 42.33962 -7.62051 23669 ft 395 kts 72°
2026-04-14 11:02 42.34605 -7.58491 24070 ft 397 kts 72°
2026-04-14 11:03 42.35259 -7.54865 24465 ft 399 kts 72°
2026-04-14 11:03 42.35915 -7.51225 24851 ft 401 kts 72°
2026-04-14 11:03 42.36579 -7.47538 25225 ft 404 kts 72°
2026-04-14 11:03 42.37234 -7.43892 25584 ft 406 kts 72°
2026-04-14 11:04 42.37900 -7.40165 25948 ft 408 kts 72°
2026-04-14 11:04 42.38565 -7.36441 26312 ft 410 kts 72°
2026-04-14 11:04 42.39228 -7.32723 26668 ft 413 kts 72°
2026-04-14 11:04 42.39907 -7.28908 27018 ft 415 kts 72°
2026-04-14 11:05 42.40572 -7.25167 27362 ft 416 kts 72°
2026-04-14 11:05 42.41248 -7.21356 27681 ft 419 kts 72°
2026-04-14 11:05 42.41928 -7.17509 27996 ft 421 kts 72°
2026-04-14 11:05 42.42604 -7.13665 28324 ft 423 kts 72°
2026-04-14 11:06 42.43270 -7.09828 28637 ft 425 kts 72°
2026-04-14 11:06 42.43943 -7.05941 28949 ft 427 kts 72°
2026-04-14 11:06 42.44616 -7.02040 29258 ft 429 kts 72°
2026-04-14 11:06 42.45296 -6.98093 29564 ft 430 kts 72°
2026-04-14 11:07 42.45968 -6.94186 29854 ft 432 kts 72°
2026-04-14 11:07 42.46648 -6.90214 30151 ft 433 kts 72°
2026-04-14 11:07 42.47324 -6.86254 30420 ft 436 kts 72°
2026-04-14 11:07 42.48007 -6.82253 30688 ft 438 kts 72°
2026-04-14 11:08 42.48692 -6.78238 30941 ft 440 kts 72°
2026-04-14 11:08 42.49371 -6.74242 31185 ft 442 kts 72°
2026-04-14 11:08 42.50064 -6.70162 31463 ft 443 kts 72°
2026-04-14 11:08 42.50747 -6.66132 31727 ft 445 kts 72°
2026-04-14 11:09 42.51437 -6.62038 31995 ft 446 kts 72°
2026-04-14 11:09 42.52124 -6.57962 32228 ft 448 kts 72°
2026-04-14 11:09 42.52815 -6.53860 32490 ft 448 kts 71°
2026-04-14 11:10 42.54184 -6.45664 33196 ft 446 kts 71°
2026-04-14 11:10 42.54859 -6.41619 33537 ft 444 kts 71°
2026-04-14 11:10 42.55542 -6.37520 33849 ft 444 kts 71°
2026-04-14 11:10 42.56208 -6.33506 34188 ft 443 kts 71°
2026-04-14 11:11 42.56871 -6.29503 34493 ft 442 kts 71°
2026-04-14 11:11 42.57549 -6.25404 34734 ft 443 kts 71°
2026-04-14 11:11 42.58220 -6.21344 34967 ft 444 kts 71°
2026-04-14 11:11 42.58884 -6.17318 35209 ft 445 kts 71°
2026-04-14 11:12 42.59555 -6.13232 35455 ft 445 kts 71°
2026-04-14 11:12 42.60223 -6.09153 35684 ft 446 kts 71°
2026-04-14 11:12 42.60894 -6.05052 35880 ft 447 kts 71°
2026-04-14 11:12 42.61561 -6.00960 36072 ft 448 kts 71°
2026-04-14 11:13 42.62221 -5.96904 36209 ft 449 kts 70°
2026-04-14 11:13 42.62890 -5.92773 36209 ft 448 kts 70°
2026-04-14 11:13 42.64229 -5.84502 36211 ft 448 kts 70°
2026-04-14 11:14 42.65546 -5.76307 36217 ft 448 kts 70°
2026-04-14 11:14 42.66862 -5.68085 36218 ft 447 kts 70°
2026-04-14 11:15 42.68171 -5.59870 36214 ft 446 kts 70°
2026-04-14 11:15 42.69381 -5.51637 36209 ft 450 kts 74°
2026-04-14 11:16 42.69966 -5.43142 36207 ft 456 kts 81°
2026-04-14 11:16 42.69781 -5.34521 36201 ft 462 kts 89°
2026-04-14 11:17 42.69031 -5.25864 36198 ft 464 kts 90°
2026-04-14 11:17 42.68246 -5.17210 36194 ft 463 kts 90°
2026-04-14 11:18 42.67473 -5.08601 36192 ft 463 kts 90°
2026-04-14 11:18 42.66705 -5.00030 36195 ft 462 kts 90°
2026-04-14 11:19 42.65913 -4.91332 36193 ft 463 kts 90°
2026-04-14 11:19 42.65115 -4.82692 36193 ft 463 kts 90°
2026-04-14 11:20 42.64307 -4.74057 36189 ft 461 kts 90°
2026-04-14 11:20 42.63500 -4.65473 36187 ft 461 kts 90°
2026-04-14 11:21 42.62686 -4.56890 36186 ft 460 kts 89°
2026-04-14 11:21 42.61868 -4.48332 36184 ft 459 kts 89°
2026-04-14 11:22 42.61046 -4.39785 36181 ft 460 kts 89°
2026-04-14 11:22 42.60228 -4.31333 36182 ft 460 kts 90°
2026-04-14 11:23 42.59397 -4.22869 36182 ft 459 kts 90°
2026-04-14 11:23 42.58551 -4.14291 36180 ft 459 kts 89°
2026-04-14 11:24 42.57706 -4.05772 36184 ft 458 kts 89°
2026-04-14 11:24 42.56853 -3.97289 36181 ft 456 kts 89°
2026-04-14 11:25 42.55994 -3.88789 36182 ft 457 kts 89°
2026-04-14 11:25 42.55132 -3.80335 36192 ft 455 kts 89°
2026-04-14 11:26 42.54261 -3.71836 36198 ft 455 kts 89°
2026-04-14 11:26 42.53389 -3.63380 36197 ft 456 kts 89°
2026-04-14 11:27 42.52509 -3.54929 36196 ft 455 kts 89°
2026-04-14 11:27 42.51623 -3.46472 36195 ft 454 kts 89°
2026-04-14 11:28 42.50735 -3.38058 36189 ft 454 kts 89°
2026-04-14 11:28 42.49834 -3.29588 36188 ft 454 kts 89°
2026-04-14 11:29 42.48938 -3.21228 36187 ft 454 kts 89°
2026-04-14 11:29 42.48029 -3.12809 36187 ft 454 kts 89°
2026-04-14 11:30 42.47114 -3.04388 36181 ft 453 kts 89°
2026-04-14 11:30 42.46195 -2.95990 36180 ft 452 kts 89°
2026-04-14 11:31 42.45158 -2.87615 36178 ft 457 kts 93°
2026-04-14 11:31 42.43540 -2.79265 36176 ft 460 kts 96°
2026-04-14 11:32 42.41823 -2.70997 36174 ft 458 kts 96°
2026-04-14 11:32 42.40109 -2.62725 36171 ft 460 kts 96°
2026-04-14 11:33 42.38392 -2.54447 36172 ft 460 kts 96°
2026-04-14 11:34 42.35809 -2.42039 36167 ft 459 kts 96°
2026-04-14 11:34 42.34092 -2.33824 36165 ft 458 kts 96°
2026-04-14 11:35 42.32353 -2.25542 36159 ft 458 kts 97°
2026-04-14 11:35 42.30623 -2.17337 36162 ft 458 kts 96°
2026-04-14 11:36 42.28894 -2.09159 36165 ft 458 kts 96°
2026-04-14 11:36 42.27173 -2.01060 36164 ft 457 kts 96°
2026-04-14 11:37 42.25421 -1.92857 36166 ft 457 kts 96°
2026-04-14 11:37 42.23666 -1.84680 36162 ft 456 kts 96°
2026-04-14 11:38 42.21930 -1.76614 36153 ft 457 kts 96°
2026-04-14 11:38 42.20161 -1.68428 36156 ft 455 kts 96°
2026-04-14 11:39 42.18391 -1.60264 36146 ft 454 kts 96°
2026-04-14 11:39 42.16630 -1.52167 36144 ft 454 kts 96°
2026-04-14 11:40 42.14854 -1.44038 36141 ft 454 kts 96°
2026-04-14 11:40 42.13078 -1.35924 36136 ft 456 kts 96°
2026-04-14 11:41 42.11290 -1.27795 35905 ft 456 kts 97°
2026-04-14 11:41 42.10381 -1.23678 36028 ft 458 kts 96°
2026-04-14 11:41 42.09483 -1.19612 36076 ft 458 kts 96°
2026-04-14 11:42 42.07679 -1.11479 36116 ft 458 kts 96°
2026-04-14 11:42 42.05870 -1.03338 36114 ft 456 kts 96°
2026-04-14 11:43 42.04066 -0.95239 36102 ft 456 kts 96°
2026-04-14 11:43 42.02242 -0.87096 36087 ft 454 kts 96°
2026-04-14 11:44 42.00423 -0.79008 36076 ft 455 kts 96°
2026-04-14 11:44 41.98591 -0.70926 36067 ft 454 kts 96°
2026-04-14 11:45 41.96757 -0.62856 36064 ft 451 kts 96°
2026-04-14 11:45 41.94934 -0.54843 36073 ft 454 kts 96°
2026-04-14 11:46 41.93088 -0.46765 36073 ft 454 kts 96°
2026-04-14 11:46 41.91251 -0.38775 36071 ft 451 kts 96°
2026-04-14 11:47 41.89542 -0.31348 36069 ft 451 kts 97°
2026-04-14 11:47 41.87713 -0.23419 36074 ft 451 kts 97°
2026-04-14 11:48 41.86113 -0.15403 35924 ft 434 kts 91°
2026-04-14 11:48 41.85542 -0.11452 35411 ft 433 kts 89°
2026-04-14 11:48 41.84996 -0.07517 34890 ft 432 kts 89°
2026-04-14 11:48 41.84444 -0.03592 34409 ft 430 kts 89°
2026-04-14 11:49 41.83897 0.00199 33838 ft 430 kts 89°
2026-04-14 11:49 41.83320 0.04163 33126 ft 431 kts 90°
2026-04-14 11:49 41.82736 0.08129 32453 ft 432 kts 90°
2026-04-14 11:49 41.82155 0.12033 31786 ft 432 kts 90°
2026-04-14 11:50 41.81563 0.15969 31186 ft 430 kts 90°
2026-04-14 11:50 41.80995 0.19800 30709 ft 425 kts 90°
2026-04-14 11:50 41.80436 0.23670 30278 ft 419 kts 90°
2026-04-14 11:51 41.79362 0.31146 29242 ft 411 kts 90°
2026-04-14 11:51 41.78823 0.34880 28687 ft 409 kts 90°
2026-04-14 11:51 41.78284 0.38587 28135 ft 406 kts 91°
2026-04-14 11:51 41.77743 0.42294 27601 ft 403 kts 91°
2026-04-14 11:52 41.77225 0.45838 27139 ft 399 kts 91°
2026-04-14 11:52 41.76699 0.49435 26650 ft 396 kts 91°
2026-04-14 11:52 41.76173 0.53026 26091 ft 394 kts 92°
2026-04-14 11:52 41.75650 0.56583 25554 ft 392 kts 92°
2026-04-14 11:53 41.75132 0.60094 25098 ft 388 kts 92°
2026-04-14 11:53 41.74609 0.63633 24616 ft 385 kts 92°
2026-04-14 11:53 41.74122 0.66922 24114 ft 382 kts 93°
2026-04-14 11:53 41.73672 0.69983 23702 ft 380 kts 94°
2026-04-14 11:54 41.73380 0.71965 23383 ft 380 kts 94°
2026-04-14 11:54 41.72924 0.75026 22897 ft 379 kts 94°
2026-04-14 11:54 41.72390 0.78608 22396 ft 376 kts 94°
2026-04-14 11:54 41.71883 0.81980 21954 ft 372 kts 94°
2026-04-14 11:55 41.71378 0.85340 21519 ft 369 kts 95°
2026-04-14 11:55 41.70879 0.88679 21041 ft 366 kts 95°
2026-04-14 11:55 41.70382 0.91989 20621 ft 363 kts 95°
2026-04-14 11:55 41.69885 0.95280 20198 ft 360 kts 95°
2026-04-14 11:56 41.69395 0.98534 19769 ft 357 kts 96°
2026-04-14 11:56 41.68914 1.01716 19322 ft 355 kts 95°
2026-04-14 11:56 41.68430 1.04915 18899 ft 353 kts 96°
2026-04-14 11:56 41.67949 1.08076 18483 ft 350 kts 96°
2026-04-14 11:57 41.67464 1.11248 18077 ft 348 kts 96°
2026-04-14 11:57 41.66983 1.14406 17608 ft 347 kts 96°
2026-04-14 11:57 41.66502 1.17536 17221 ft 344 kts 96°
2026-04-14 11:57 41.66021 1.20669 16825 ft 342 kts 96°
2026-04-14 11:58 41.65552 1.23721 16440 ft 339 kts 96°
2026-04-14 11:58 41.65113 1.26570 16087 ft 336 kts 96°
2026-04-14 11:58 41.64628 1.29730 15651 ft 334 kts 96°
2026-04-14 11:58 41.64164 1.32745 15271 ft 331 kts 96°
2026-04-14 11:59 41.63705 1.35711 14886 ft 329 kts 95°
2026-04-14 11:59 41.63244 1.38688 14505 ft 327 kts 96°
2026-04-14 11:59 41.62782 1.41664 14112 ft 324 kts 95°
2026-04-14 11:59 41.62329 1.44579 13702 ft 323 kts 95°
2026-04-14 12:00 41.61876 1.47499 13304 ft 321 kts 95°
2026-04-14 12:00 41.61429 1.50364 12923 ft 319 kts 95°
2026-04-14 12:00 41.60980 1.53250 12534 ft 318 kts 95°
2026-04-14 12:00 41.60534 1.56112 12149 ft 316 kts 96°
2026-04-14 12:01 41.60085 1.59000 11750 ft 315 kts 96°
2026-04-14 12:01 41.59642 1.61819 11371 ft 313 kts 96°
2026-04-14 12:01 41.59196 1.64646 10979 ft 312 kts 96°
2026-04-14 12:01 41.58752 1.67466 10608 ft 310 kts 97°
2026-04-14 12:02 41.58308 1.70278 10251 ft 308 kts 96°
2026-04-14 12:02 41.57874 1.73025 10014 ft 302 kts 97°
2026-04-14 12:02 41.57449 1.75707 9833 ft 294 kts 97°
2026-04-14 12:02 41.57030 1.78341 9678 ft 286 kts 97°
2026-04-14 12:03 41.56623 1.80902 9400 ft 283 kts 97°
2026-04-14 12:03 41.56216 1.83477 9063 ft 282 kts 97°
2026-04-14 12:03 41.55814 1.86027 8729 ft 282 kts 97°
2026-04-14 12:03 41.55411 1.88555 8408 ft 280 kts 98°
2026-04-14 12:04 41.55019 1.91061 8084 ft 279 kts 98°
2026-04-14 12:04 41.54652 1.93482 7773 ft 278 kts 98°
2026-04-14 12:04 41.54266 1.96041 7451 ft 277 kts 98°
2026-04-14 12:04 41.53892 1.98507 7210 ft 272 kts 98°
2026-04-14 12:05 41.53528 2.00877 7064 ft 265 kts 98°
2026-04-14 12:05 41.53166 2.03235 6915 ft 257 kts 99°
2026-04-14 12:05 41.52833 2.05411 6776 ft 250 kts 99°
2026-04-14 12:05 41.52487 2.07666 6628 ft 243 kts 99°
2026-04-14 12:06 41.52082 2.09836 6384 ft 241 kts 104°
2026-04-14 12:06 41.51605 2.11742 6125 ft 242 kts 108°
2026-04-14 12:06 41.50937 2.13835 5846 ft 241 kts 113°
2026-04-14 12:06 41.50195 2.15853 5572 ft 241 kts 114°
2026-04-14 12:07 41.49485 2.17764 5359 ft 240 kts 114°
2026-04-14 12:07 41.48759 2.19719 5142 ft 240 kts 114°
2026-04-14 12:07 41.48031 2.21686 4921 ft 238 kts 114°
2026-04-14 12:07 41.47311 2.23628 4720 ft 236 kts 114°
2026-04-14 12:08 41.46596 2.25559 4515 ft 227 kts 114°
2026-04-14 12:08 41.45915 2.27400 4310 ft 218 kts 114°
2026-04-14 12:08 41.45231 2.29145 4111 ft 209 kts 123°
2026-04-14 12:08 41.44193 2.30461 3924 ft 206 kts 148°
2026-04-14 12:09 41.42885 2.31128 3757 ft 203 kts 164°
2026-04-14 12:09 41.41506 2.31546 3593 ft 199 kts 166°
2026-04-14 12:09 41.40167 2.31921 3478 ft 194 kts 167°
2026-04-14 12:09 41.38855 2.31915 3378 ft 195 kts 200°
2026-04-14 12:10 41.37764 2.30898 3340 ft 194 kts 229°
2026-04-14 12:10 41.37022 2.29398 3128 ft 196 kts 243°
2026-04-14 12:10 41.36496 2.27842 2855 ft 196 kts 248°
2026-04-14 12:10 41.35970 2.26140 2562 ft 195 kts 247°
2026-04-14 12:11 41.35426 2.24465 2284 ft 195 kts 245°
2026-04-14 12:11 41.34882 2.22868 2021 ft 194 kts 245°
2026-04-14 12:11 41.34320 2.21250 1763 ft 193 kts 244°
2026-04-14 12:11 41.33772 2.19670 1503 ft 182 kts 244°
2026-04-14 12:12 41.33289 2.18271 1304 ft 171 kts 244°
2026-04-14 12:12 41.32803 2.16857 1075 ft 162 kts 244°
2026-04-14 12:12 41.32350 2.15542 864 ft 152 kts 244°
2026-04-14 12:12 41.31930 2.14317 670 ft 145 kts 243°
2026-04-14 12:13 41.31517 2.13115 493 ft 143 kts 243°
2026-04-14 12:13 41.31110 2.11917 298 ft 142 kts 243°
2026-04-14 12:13 41.30696 2.10731 128 ft 140 kts 243°
2026-04-14 12:13 41.30302 2.09581 27 ft 132 kts 243°
2026-04-14 12:14 41.29985 2.08664 24 ft 85 kts 246°
2026-04-14 12:14 41.29814 2.08159 23 ft 36 kts 244°
2026-04-14 12:14 41.29729 2.07976 23 ft 20 kts 228°
2026-04-14 12:14 41.29632 2.07863 23 ft 15 kts 212°
2026-04-14 12:15 41.29542 2.07784 23 ft 15 kts 216°
2026-04-14 12:15 41.29464 2.07681 23 ft 16 kts 245°
2026-04-14 12:15 41.29416 2.07545 23 ft 16 kts 245°
2026-04-14 12:15 41.29367 2.07405 23 ft 17 kts 244°
2026-04-14 12:16 41.29317 2.07256 23 ft 17 kts 246°
2026-04-14 12:16 41.29266 2.07109 23 ft 18 kts 244°
2026-04-14 12:16 41.29180 2.07073 23 ft 15 kts 155°
2026-04-14 12:16 41.29107 2.07025 23 ft 9 kts 239°
2026-04-14 12:17 41.29056 2.07017 23 ft 4 kts 155°
2026-04-14 12:17 41.29030 2.07033 23 ft 0 kts 155°